[[{"header":{"parameterUnit":"m.s-1","parameterCategory":1,"la1":30.2991,"la2":30.254,"lo1":-89.0895,"lo2":-89.0444,"dy":0.0017,"dx":0.0017,"nx":28,"ny":28,"refTime":"2025-03-28T03:00:00:Z","depth":0,"parameterNumber":2,"parameterNumberName":"U-component_of_WINDS"},"data":[0,0,0,0,0,0,0,0,0,0,0,0,0,0,0,0,0,0,0,0,0,0,0,0,0,0,0,0,0,0,0,0,0,0,0,0,0,0,0,0,0,0,0,0,0,0,0,0,0,0,0,0,0,0,0,0,0,0,-3.3691,-3.3691,0,-3.3718,-3.3718,-3.3718,-3.3668,-3.3666,-3.3665,-3.3663,-3.3691,-3.3693,-3.3695,0,0,0,0,0,0,0,0,0,0,0,0,0,-3.3598,-3.36,-3.3691,-3.3691,-3.3691,-3.3718,-3.3718,-3.3718,-3.3668,-3.3666,-3.3664,-3.3662,-3.369,-3.3693,-3.3695,0,0,0,0,0,0,0,0,0,0,0,0,0,-3.3633,-3.36,-3.3691,-3.367,-3.3668,-3.3718,-3.3718,-3.3718,-3.3669,-3.3666,-3.3664,-3.3661,-3.3689,-3.3692,-3.3696,-3.3767,0,0,-3.3706,-3.3708,0,0,0,0,0,0,0,0,-3.3631,-3.3636,-3.3672,-3.3671,-3.3669,-3.3687,-3.3695,-3.3735,-3.3669,-3.3668,-3.3663,-3.366,-3.3691,-3.3694,-3.3705,-3.3768,-3.377,-3.3706,-3.3709,-3.371,-3.3711,0,0,0,0,0,0,0,-3.3628,-3.3635,-3.3701,-3.3673,-3.3671,-3.3659,-3.3662,-3.3703,-3.3694,-3.3668,-3.3665,-3.3669,-3.369,-3.3702,-3.3705,-3.377,-3.3706,-3.3709,-3.3712,-3.3713,-3.3896,-3.3898,0,0,0,0,0,0,-3.3629,-3.3633,-3.37,-3.3702,-3.3644,-3.3663,-3.3666,-3.3684,-3.3693,-3.3692,-3.3671,-3.3666,-3.3697,-3.3701,-3.3706,-3.3791,-3.371,-3.3713,-3.3715,-3.3893,-3.3896,-3.3899,0,0,0,0,0,0,-3.3627,-3.3635,-3.3699,-3.3667,-3.3674,-3.3667,-3.3688,-3.3686,-3.3697,-3.3695,-3.3693,-3.3684,-3.3695,-3.3701,-3.3753,-3.3791,-3.3715,-3.3718,-3.3889,-3.3894,-3.3898,-3.3961,0,0,0,0,0,0,-3.3624,-3.3635,-3.3661,-3.3668,-3.3676,-3.3745,-3.3691,-3.3688,-3.3703,-3.3698,-3.3707,-3.3706,-3.3694,-3.3748,-3.3756,-3.3795,-3.3721,-3.3886,-3.3891,-3.3896,-3.3955,-3.3967,-3.3977,0,0,0,0,0,-3.3621,-3.3677,-3.3663,-3.3671,-3.3709,-3.3747,-3.3752,-3.3737,-3.3707,-3.3733,-3.3732,-3.3706,-3.3786,-3.3754,-3.3762,-3.3802,-3.3883,-3.389,-3.3896,-3.3951,-3.3965,-3.3976,0,0,0,0,0,0,-3.3674,-3.3678,-3.3661,-3.3721,-3.3735,-3.3739,-3.3772,-3.3752,-3.3774,-3.3767,-3.3748,-3.375,-3.3806,-3.381,-3.3773,-3.3873,-3.383,-3.3838,-3.3868,-3.3882,-3.3892,-3.3889,-3.3723,0,0,0,0,0,-3.3693,-3.3724,-3.3725,-3.3778,-3.3786,-3.3778,-3.3794,-3.3782,-3.3795,-3.38,-3.3802,-3.3816,-3.3845,-3.3864,-3.3889,-3.3957,-3.3958,-3.3989,-3.4,-3.4008,-3.4015,-3.4052,-3.4066,-3.392,-3.392,-3.392,0,0,-3.3732,-3.3738,-3.3758,-3.3789,-3.3798,-3.3831,-3.3783,-3.3819,-3.3844,-3.3805,-3.3854,-3.3857,-3.3871,-3.3931,-3.3958,-3.3936,-3.4057,-3.4016,-3.4023,-3.4025,-3.406,-3.4074,-3.4087,-3.3924,-3.3923,-3.3923,0,0,-3.3819,-3.3827,-3.3872,-3.3883,-3.3897,-3.3892,-3.3903,-3.3912,-3.3912,-3.3961,-3.3933,-3.3963,-3.4012,-3.4024,-3.4036,-3.4132,-3.4109,-3.4142,-3.4196,-3.4233,-3.4244,-3.4254,-3.4289,-3.4302,-3.4149,-3.4149,-3.4149,0,-3.3865,-3.3914,-3.3898,-3.3937,-3.3952,-3.392,-3.3967,-3.3978,-3.4,-3.4011,-3.3987,-3.405,-3.4057,-3.412,-3.4144,-3.4155,-3.4168,-3.4139,-3.4244,-3.4254,-3.4263,-3.4296,-3.4309,-3.4153,-3.4153,-3.4152,-3.4152,0,-3.397,-3.4005,-3.404,-3.4063,-3.4082,-3.4125,-3.4116,-3.4138,-3.4125,-3.4123,-3.4175,-3.4183,-3.4211,-3.4225,-3.4212,-3.4287,-3.4273,-3.4247,-3.4203,-3.4281,-3.4312,-3.4324,-3.4158,-3.4157,-3.4156,-3.4155,0,0,-3.4088,-3.4105,-3.4118,-3.4129,-3.4144,-3.4171,-3.4213,-3.4241,-3.426,-3.4278,-3.4313,-3.4357,-3.4334,-3.4348,-3.4337,-3.4369,-3.4446,-3.4339,-3.4339,-3.4358,-3.453,-3.4549,-3.4564,-3.4432,-3.4434,-3.4436,-3.4529,0,-3.4175,-3.4247,-3.4236,-3.4306,-3.4339,-3.4311,-3.4348,-3.4362,-3.4362,-3.439,-3.4391,-3.4422,-3.4389,-3.4398,-3.4429,-3.443,-3.448,-3.4423,-3.4464,-3.4466,-3.446,-3.4579,-3.4599,-3.4686,-3.4541,-3.4543,-3.4544,0,-3.4285,-3.4308,-3.4381,-3.4394,-3.4407,-3.444,-3.4466,-3.4493,-3.451,-3.4508,-3.4526,-3.4509,-3.4553,-3.451,-3.457,-3.4532,-3.4549,-3.4552,-3.4556,-3.4557,-3.4509,-3.4584,-3.4714,-3.4727,-3.4563,-3.4561,-3.456,0,-3.4364,-3.4413,-3.4464,-3.4474,-3.449,-3.4514,-3.4522,-3.4536,-3.4554,-3.4578,-3.459,-3.4618,-3.4633,-3.4656,-3.4648,-3.4617,-3.471,-3.4666,-3.471,-3.4711,-3.4729,-3.4728,-3.4863,-3.4742,-3.4742,-3.4742,-3.4742,0,-3.4461,-3.4507,-3.45,-3.4531,-3.4582,-3.457,-3.4622,-3.4626,-3.464,-3.4672,-3.465,-3.4681,-3.467,-3.4701,-3.4695,-3.4747,-3.4754,-3.4754,-3.4752,-3.4755,-3.4755,-3.4765,-3.4758,-3.4745,-3.4745,-3.4744,-3.4743,0,-3.4556,-3.4553,-3.4607,-3.4619,-3.4623,-3.4661,-3.4671,-3.4701,-3.4701,-3.4742,-3.4751,-3.4751,-3.4787,-3.4782,-3.4821,-3.4818,-3.4882,-3.4872,-3.4876,-3.4874,-3.4918,-3.4914,-3.5062,-3.5082,-3.495,-3.4951,-3.4952,0,-3.4618,-3.4653,-3.4669,-3.469,-3.47,-3.4732,-3.4752,-3.4742,-3.4763,-3.4786,-3.4814,-3.4848,-3.4873,-3.4932,-3.4936,-3.4966,-3.4957,-3.5008,-3.4961,-3.4965,-3.4958,-3.4955,-3.4959,-3.5016,-3.5017,-3.5019,-3.502,0,-3.4728,-3.4725,-3.4753,-3.4782,-3.4806,-3.4828,-3.4848,-3.4866,-3.4859,-3.4884,-3.492,-3.4941,-3.4982,-3.5016,-3.5046,-3.5055,-3.5037,-3.5035,-3.5046,-3.505,-3.505,-3.505,-3.49,-3.5031,-3.5029,-3.5029,-3.5028,-3.5028,-3.4807,-3.4838,-3.4855,-3.4888,-3.4903,-3.4923,-3.4952,-3.4957,-3.4987,-3.5019,-3.5013,-3.5054,-3.5072,-3.511,-3.5122,-3.5155,-3.5137,-3.5154,-3.5158,-3.5162,-3.5167,-3.5046,-3.516,-3.516,-3.516,-3.516,-3.5159,0,-3.4916,-3.4926,-3.4957,-3.4986,-3.5013,-3.4995,-3.5017,-3.5041,-3.5077,-3.5096,-3.5123,-3.5166,-3.52,-3.5208,-3.524,-3.5265,-3.5258,-3.5274,-3.5271,-3.5274,-3.5182,-3.5168,-3.5279,-3.5279,-3.5279,-3.5279,-3.5279,-3.5279,-3.4975,-3.5026,-3.5026,-3.5085,-3.5095,-3.5136,-3.515,-3.5169,-3.5184,-3.5233,-3.5261,-3.5267,-3.5282,-3.5316,-3.5347,-3.5348,-3.5361,-3.5381,-3.5379,-3.5292,-3.528,-3.5269,-3.5256,-3.5384,-3.5384,-3.5468,-3.5469,-3.547]},{"header":{"parameterUnit":"m.s-1","parameterCategory":1,"la1":30.2991,"la2":30.254,"lo1":-89.0895,"lo2":-89.0444,"dy":0.0017,"dx":0.0017,"nx":28,"ny":28,"refTime":"2025-03-28T03:00:00:Z","depth":0,"parameterNumber":3,"parameterNumberName":"V-component_of_WINDS"},"data":[0,0,0,0,0,0,0,0,0,0,0,0,0,0,0,0,0,0,0,0,0,0,0,0,0,0,0,0,0,0,0,0,0,0,0,0,0,0,0,0,0,0,0,0,0,0,0,0,0,0,0,0,0,0,0,0,0,0,1.4204,1.4204,0,1.4194,1.4194,1.4194,1.4211,1.4212,1.4213,1.4213,1.4201,1.42,1.4199,0,0,0,0,0,0,0,0,0,0,0,0,0,1.4237,1.4236,1.4204,1.4204,1.4204,1.4194,1.4194,1.4194,1.4211,1.4212,1.4213,1.4213,1.4201,1.42,1.4199,0,0,0,0,0,0,0,0,0,0,0,0,0,1.4224,1.4236,1.4204,1.4211,1.4212,1.4194,1.4194,1.4194,1.4211,1.4212,1.4213,1.4214,1.4201,1.42,1.4199,1.4173,0,0,1.4195,1.4194,0,0,0,0,0,0,0,0,1.4225,1.4223,1.421,1.4211,1.4211,1.4205,1.4201,1.4187,1.4211,1.4211,1.4213,1.4214,1.4201,1.42,1.4196,1.4172,1.4172,1.4195,1.4194,1.4193,1.4193,0,0,0,0,0,0,0,1.4226,1.4224,1.42,1.421,1.4211,1.4215,1.4214,1.4199,1.4201,1.4211,1.4213,1.4211,1.4202,1.4197,1.4196,1.4171,1.4195,1.4193,1.4193,1.4192,1.4128,1.4127,0,0,0,0,0,0,1.4226,1.4224,1.42,1.42,1.4221,1.4214,1.4213,1.4206,1.4202,1.4202,1.4211,1.4212,1.4199,1.4197,1.4196,1.4167,1.4193,1.4192,1.4191,1.4129,1.4128,1.4127,0,0,0,0,0,0,1.4227,1.4224,1.4201,1.4212,1.421,1.4212,1.4205,1.4205,1.4201,1.4201,1.4201,1.4206,1.42,1.4197,1.4179,1.4166,1.4191,1.419,1.413,1.4129,1.4128,1.4107,0,0,0,0,0,0,1.4228,1.4224,1.4214,1.4212,1.4209,1.4185,1.4204,1.4205,1.4199,1.4201,1.4197,1.4197,1.42,1.4181,1.4178,1.4165,1.4189,1.4131,1.413,1.4128,1.4109,1.4105,1.4102,0,0,0,0,0,1.4229,1.4208,1.4213,1.421,1.4197,1.4184,1.4182,1.4187,1.4198,1.4188,1.4189,1.4197,1.4168,1.4179,1.4175,1.4162,1.4132,1.413,1.4128,1.4111,1.4106,1.4102,0,0,0,0,0,0,1.4206,1.4207,1.4214,1.4192,1.4188,1.4187,1.4174,1.4182,1.4174,1.4176,1.4183,1.4181,1.4162,1.416,1.4172,1.4138,1.4152,1.4149,1.414,1.4136,1.4132,1.4133,1.4188,0,0,0,0,0,1.4199,1.4189,1.419,1.417,1.4168,1.4172,1.4166,1.4171,1.4167,1.4165,1.4163,1.4159,1.4149,1.4142,1.4133,1.4109,1.4109,1.4098,1.4095,1.4092,1.409,1.4079,1.4074,1.412,1.412,1.4121,0,0,1.4183,1.4183,1.4176,1.4166,1.4163,1.4153,1.417,1.4157,1.415,1.4162,1.4146,1.4145,1.414,1.4119,1.411,1.4117,1.4077,1.4089,1.4087,1.4086,1.4076,1.4072,1.4068,1.4119,1.4119,1.412,0,0,1.415,1.4148,1.4132,1.413,1.4127,1.413,1.4126,1.4125,1.4125,1.4109,1.4119,1.4109,1.4092,1.4089,1.4085,1.4053,1.406,1.4049,1.4031,1.4021,1.4017,1.4014,1.4004,1.4,1.4047,1.4047,1.4047,0,1.4131,1.4115,1.4123,1.4111,1.4107,1.4119,1.4104,1.4101,1.4095,1.4091,1.41,1.408,1.4077,1.4057,1.405,1.4045,1.4042,1.405,1.4017,1.4014,1.4011,1.4002,1.3998,1.4046,1.4046,1.4046,1.4046,0,1.4093,1.4082,1.407,1.4065,1.406,1.4045,1.4051,1.4045,1.4051,1.4053,1.4037,1.4035,1.4026,1.4022,1.4026,1.4003,1.4008,1.4016,1.4031,1.4006,1.3997,1.3993,1.4044,1.4044,1.4045,1.4045,0,0,1.4043,1.4045,1.404,1.4039,1.4038,1.403,1.4017,1.401,1.4005,1.4,1.399,1.3976,1.3986,1.3981,1.3986,1.3976,1.3953,1.3987,1.3987,1.3981,1.3929,1.3923,1.3918,1.3958,1.3958,1.3957,1.393,0,1.4011,1.399,1.3998,1.3976,1.3967,1.3981,1.397,1.3968,1.397,1.3962,1.3964,1.3955,1.3967,1.3965,1.3956,1.3958,1.3943,1.396,1.3949,1.3949,1.3951,1.3913,1.3906,1.388,1.3926,1.3925,1.3925,0,1.397,1.3966,1.3944,1.3947,1.3943,1.3933,1.3929,1.3921,1.392,1.3922,1.3919,1.3926,1.3914,1.3929,1.3913,1.3924,1.392,1.3921,1.392,1.3919,1.3936,1.3913,1.3872,1.3868,1.3919,1.392,1.392,0,1.3938,1.3927,1.3913,1.3911,1.3913,1.3906,1.3907,1.3906,1.3902,1.3898,1.3896,1.389,1.3887,1.3882,1.3888,1.3898,1.3872,1.3886,1.3874,1.3874,1.3867,1.3868,1.3826,1.3864,1.3864,1.3864,1.3864,0,1.3902,1.3888,1.3899,1.389,1.3876,1.3885,1.387,1.3872,1.3872,1.3864,1.3875,1.3867,1.3875,1.3868,1.3873,1.386,1.3858,1.386,1.3861,1.3859,1.3859,1.3857,1.3859,1.3863,1.3863,1.3864,1.3864,0,1.3863,1.387,1.3856,1.386,1.386,1.385,1.3853,1.3845,1.3849,1.3839,1.3837,1.3843,1.3836,1.3842,1.3834,1.3837,1.382,1.3824,1.3821,1.3822,1.381,1.3811,1.3766,1.3761,1.3801,1.3801,1.38,0,1.3839,1.383,1.3833,1.383,1.383,1.3823,1.382,1.3829,1.3825,1.3824,1.3817,1.3811,1.3807,1.3795,1.3798,1.3793,1.3797,1.3781,1.3796,1.3795,1.3798,1.3799,1.3798,1.3778,1.3778,1.3777,1.3777,0,1.3798,1.3802,1.3798,1.3795,1.3791,1.3789,1.3788,1.3784,1.3793,1.3789,1.3782,1.3779,1.3773,1.3767,1.3764,1.3764,1.3772,1.3773,1.377,1.3768,1.3767,1.3769,1.3814,1.3774,1.3774,1.3774,1.3774,1.3775,1.3767,1.3759,1.3762,1.3757,1.3757,1.3756,1.375,1.3754,1.3749,1.3746,1.3751,1.3744,1.3744,1.374,1.374,1.3734,1.3741,1.3736,1.3735,1.3734,1.3733,1.3768,1.3733,1.3734,1.3734,1.3734,1.3734,0,1.3726,1.3729,1.3725,1.3724,1.372,1.373,1.3729,1.3726,1.3719,1.372,1.3716,1.371,1.3705,1.3709,1.3705,1.37,1.3704,1.3698,1.3699,1.3699,1.3726,1.373,1.3695,1.3695,1.3695,1.3695,1.3695,1.3695,1.3705,1.3694,1.3699,1.3689,1.3691,1.3685,1.3684,1.3684,1.3685,1.3677,1.3674,1.3677,1.3679,1.3676,1.3672,1.3673,1.3672,1.3665,1.3668,1.3693,1.3697,1.3701,1.3704,1.3665,1.3665,1.3641,1.3641,1.3641]}]]